Miscellaneous Local Product
Issued by NWS Hastings, NE

Home | Current Version | Previous Version | Graphics & Text | Print | Product List | Glossary On
Versions: 1 2 3 4 5 6 7 8 9 10 11 12 13 14 15 16 17 18 19 20 21 22 23 24 25 26 27 28 29 30 31 32 33 34 35 36 37 38 39 40 41 42 43 44 45 46 47 48 49 50
225
AXUS43 KGID 270502
MISGRI

GID CWA HOURLY WEATHER ROUNDUP
NATIONAL WEATHER SERVICE HASTINGS NE
1200 AM CDT MON MAR 27 2017

NOTE: "FAIR" INDICATES FEW OR NO CLOUDS BELOW 12,000 FEET WITH NO
SIGNIFICANT WEATHER AND/OR OBSTRUCTIONS TO VISIBILITY.

...SOUTH CENTRAL NEBRASKA...

CITY           SKY/WX    TMP DP  RH WIND       PRES   REMARKS
GRAND ISLAND   CLOUDY    45  45 100 NE3       29.94S FOG
HASTINGS       CLOUDY    45  44  97 NE5       29.94S
KEARNEY        MOCLDY    45  39  81 NE6       29.94S
ORD            MOCLDY    44  40  85 CALM      29.93F
YORK           CLOUDY    45  45 100 E3        29.94S
AURORA         CLOUDY    44  44  98 N3        29.93F
LEXINGTON      CLOUDY    40  38  93 CALM      29.94S
HOLDREGE       CLOUDY    42  41  95 CALM      29.93S
HEBRON         CLOUDY    44  43  96 NE7       29.91F

...NEBRASKA PANHANDLE...

CITY           SKY/WX    TMP DP  RH WIND       PRES   REMARKS
CHADRON        CLOUDY    41  38  89 S5        29.95F
ALLIANCE       CLEAR     34  34 100 E3        29.94F
SCOTTSBLUFF    CLOUDY    34  29  82 NE3       29.96S
SIDNEY         CLEAR     34  32  92 NW10      29.97S WCI  26

...WESTERN AND NORTH CENTRAL NEBRASKA...

CITY           SKY/WX    TMP DP  RH WIND       PRES   REMARKS
VALENTINE      CLOUDY    40  34  79 CALM      29.97S
AINSWORTH      MOCLDY    40  40  99 CALM      29.97R
ONEILL         CLOUDY    44  41  91 CALM      29.95F
BROKEN BOW     CLOUDY    46  43  89 CALM      29.94R
IMPERIAL       CLOUDY    45  41  86 S7        29.93S
NORTH PLATTE   CLOUDY    42  39  89 CALM      29.94R
MCCOOK         CLEAR     41  41 100 W7        29.94R

...EASTERN NEBRASKA...

CITY           SKY/WX    TMP DP  RH WIND       PRES   REMARKS
NORFOLK        CLOUDY    43  39  86 NE3       29.95S
SO SIOUX CITY  CLOUDY    45  40  82 N5        29.96F
TEKAMAH        CLOUDY    45  41  86 N7        29.95F
COLUMBUS       CLOUDY    43  41  93 N3        29.96R
ALBION         CLOUDY    45  42  91 NE3       29.95S
OMAHA EPPLEY   CLOUDY    47  42  83 N3        29.95R
OFFUTT AFB     CLOUDY    47  42  81 N5        29.94S
MILLARD        CLOUDY    49  44  84 CALM      29.95R
LINCOLN        CLOUDY    47  43  86 N7        29.95S
NEBRASKA CITY  CLOUDY    46  44  95 CALM      29.93S
BEATRICE       CLOUDY    45  44  95 N3        29.93F
FALLS CITY     CLOUDY    46  44  93 N8        29.90F

...NORTHERN KANSAS...

CITY           SKY/WX    TMP DP  RH WIND       PRES   REMARKS
GOODLAND       CLEAR     38  37  97 S6        29.95S WCI  33
HILL CITY      CLOUDY    45  44  97 CALM      29.92F
NORTON         PTCLDY    41  37  87 W5        29.92R
PHILLIPSBURG   CLOUDY    46  46 100 E3        29.91F
HAYS             N/A     46  45  96 N7        29.93S
RUSSELL        CLOUDY    46  45  96 N9        29.90F
CONCORDIA      CLOUDY    46  45  96 NE7       29.90F
SALINA         CLOUDY    49  47  93 NE9       29.89F
TOPEKA         RAIN      48  48 100 NE9       29.90F FOG



USA.gov is the U.S. government's official web portal to all federal, state and local government web resources and services.